Regional Weather Roundup
Issued by NWS

Home | Current Version | Previous Version | Graphics & Text | Print | Product List | Glossary On
Versions: 1 2 3 4 5 6 7 8 9 10 11 12 13 14 15 16 17 18 19 20 21 22 23 24 25 26 27 28 29 30 31 32 33 34 35 36 37 38 39 40 41 42 43 44 45 46 47 48 49 50
000
ASUS43 KDTX 210310
RWRMI
MICHIGAN HOURLY REGIONAL WEATHER ROUNDUP
NATIONAL WEATHER SERVICE DETROIT/PONTIAC MI
1000 PM EST THU NOV 20 2014

NOTE: "FAIR" INDICATES FEW OR NO CLOUDS BELOW 12,000 FEET WITH NO
SIGNIFICANT WEATHER AND/OR OBSTRUCTION TO VISIBILITY.

MIZ047>049-052>055-059>063-066>070-074>076-081>083-210400-
SOUTHEAST LOWER MICHIGAN

CITY           SKY/WX    TMP DP  RH WIND       PRES   REMARKS
ADRIAN         PTCLDY    17  12  80 W5        30.14R
ALMA           CLEAR     11   9  91 W6        30.11R
ANN ARBOR      CLOUDY    16  10  77 W3        30.12R
BAD AXE        CLEAR     18  11  77 W10G18    30.05R
DETROIT CITY   CLEAR     20  11  68 W8        30.12R
DETROIT        MOCLDY    20  12  71 W10       30.14R
FLINT          MOCLDY    13   6  74 W8        30.11R
GROSSE ILE     CLOUDY    21  12  68 W9        30.13R
HILLSDALE      PTCLDY    14  12  90 W3        30.10R
HOWELL         MOCLDY    13  10  87 W7        30.10R

CITY           SKY/WX    TMP DP  RH WIND       PRES   REMARKS
JACKSON        MOCLDY    15  12  88 W5        30.11R
LAMBERTVILLE   MOCLDY    19  14  79 CALM      30.15R
LANSING        FLURRIES  18  12  77 W12       30.13R
LAPEER         NOT AVBL
MASON          LGT SNOW  17  15  90 CALM      30.11R
MONROE         PTCLDY    18  12  79 CALM      30.13R
MT. CLEMENS    PTCLDY    16   9  75 W7        30.09R
PONTIAC        PTCLDY    13   7  77 W6        30.08R
PORT HOPE        N/A     22  11  62 W13G23    30.02R
PORT HURON     CLEAR     14   9  79 SW5       30.09R
TRI CITIES     CLEAR     15   9  76 W10       30.10R
YPSILANTI      FLURRIES  22  12  65 W8        30.13R
$$
MIZ043>046-050>051-056>058-064>065-071>073-077>080-210400-
SOUTHWEST LOWER MICHIGAN

CITY           SKY/WX    TMP DP  RH WIND       PRES   REMARKS
BATTLE CREEK   LGT SNOW  22  15  75 W8        30.13R
BENTON HARBOR  MOCLDY    24   5  44 NW17G24   30.17R
BIG RAPIDS     CLEAR     13   9  84 W8        30.09R
COLDWATER      MOCLDY    17  13  84 CALM      30.13R
HOLLAND        LGT SNOW  22  16  78 NW8G20    30.16R
GRAND RAPIDS   LGT SNOW  18  13  80 N8        30.14R
KALAMAZOO      MOCLDY    22  11  62 W9        30.13R
MARSHALL       CLOUDY    16  14  93 W6        30.11R
MUSKEGON       LGT SNOW  20  11  68 N14       30.16R
$$
MIZ016>042-210400-
NORTHERN LOWER MICHIGAN

CITY           SKY/WX    TMP DP  RH WIND       PRES   REMARKS
BEAVER ISLAND  PTCLDY    18   5  57 W10G20    30.08R
BELLAIRE       LGT SNOW  19  16  86 NW7G16    30.09R VSB 3/4
CADILLAC       LGT SNOW   5   3  91 W3        30.03R
CHARLEVOIX     CLOUDY    20   8  59 NW14G23   30.09R
FRANKFORT      LGT SNOW  18  14  84 NW9G20    30.12R
GAYLORD        LGT SNOW  15  11  83 VRB3      30.00R FOG
GRAYLING       LGT SNOW  14  11  90 SW6       30.03R
HARBOR SPRINGS PTCLDY    17   4  56 NW5       30.05R
HOUGHTON LAKE  PTCLDY    12   8  84 W7        30.04R
MANISTEE       CLOUDY    19   9  63 NW15G21   30.12R
OSCODA         CLEAR     15  10  80 W9        30.03R
PELLSTON       CLOUDY    18   8  65 NW15      30.06R
TRAVERSE CITY  LGT SNOW  19  13  77 NW13      30.09R
$$
MIZ007>008-015-210400-
EASTERN UPPER MICHIGAN

CITY           SKY/WX    TMP DP  RH WIND       PRES   REMARKS
KINROSS        PTCLDY    12  12 100 W10G18    30.00R WCI  -1
MACKINAC ISLAN PTCLDY    17  11  75 W14G23    30.04R
NEWBERRY       PTCLDY     8   4  84 W9        30.03R
S. S. MARIE    SNOW      16  12  84 N6        29.99F VSB 1/2
$$
MIZ004>006-011>014-085-210400-
CENTRAL UPPER MICHIGAN

CITY           SKY/WX    TMP DP  RH WIND       PRES   REMARKS
MANISTIQUE     CLEAR      9   2  74 W8        30.08R
ESCANABA       PTCLDY     7   1  78 W5        30.12R
MENOMINEE      PTCLDY     9   0  66 W3        30.15R
SAWYER-GWINN   PTCLDY     1  -2  85 W5        30.05R
$$
MIZ001>003-009>011-084-210400-
WESTERN UPPER MICHIGAN

CITY           SKY/WX    TMP DP  RH WIND       PRES   REMARKS
IRON MOUNTAIN  MOCLDY     8   1  73 W8        30.07R
HOUGHTON       LGT SNOW  14   6  70 NW15      30.06R WCI  -1
COPPER HARBOR    N/A     18  12  77 N22       30.06R
IRONWOOD       CLOUDY    10   5  79 SW10      30.09R WCI  -3
$$

ABBREVIATIONS USED IN REMARKS
   TC - TEMPERATURE IN CELSIUS
  WCI - WIND CHILL INDEX
   HX - HEAT INDEX
  VSB - VISIBILITY



USA.gov is the U.S. government's official web portal to all federal, state and local government web resources and services.